Back to catalog

KUIPER-00248

AliveCommunicationsLEO
NORAD 67153·PAYLOAD·🇺🇸 United States

Launched Dec 15, 2025 from Cape Canaveral Space Force Station

Loading…

Next Passes (next 24 hours)

TLE

FreshSource: CelesTrak SupGP

Epoch: Sep 14, 2026, 12:35 UTC

1 67153C 25301W   26257.52476852  .00006236  00000+0  81627-3 0  2574
2 67153  51.8974 285.6759 0000464  69.2227  66.1200 14.79928273    10

Track KUIPER-00248 in real time with AllMySat

Download on the App Store